Angel Fire, NM

3:36 PM MST on December 12, 2019 (GMT -0700)
Angel Fire

Weather History for KAXX - November, 2019

Change the Weather History Date:

Sunday, November 17, 2019

  Actual Average (KSKX) Record (KSKX)
Temperature  
Mean Temperature 30 °F -  
Max Temperature 52 °F 47 °F 64 °F (1999)
Min Temperature 7 °F 18 °F 0 °F (2014)
Degree Days  
Heating Degree Days 36    
Moisture  
Dew Point 12 °F    
Average Humidity 55    
Maximum Humidity 89    
Minimum Humidity 22    
Precipitation  
Precipitation 0.00 in - - ()
Sea Level Pressure  
Sea Level Pressure 30.23 in    
Wind  
Wind Speed 4 mph (WNW)    
Max Wind Speed 18 mph    
Max Gust Speed 25 mph    
Visibility 10 miles    
Events      
Averages and records for this station are not official NWS values.
T = Trace of Precipitation, MM = Missing Value Source: NWS Daily Summary

Daily Weather History Graph

Daily Weather History Graph

Search for Another Location

Airport or City:

Astronomy

Nov. 17, 2019 Rise Set
Actual Time 6:40 AM MST 4:51 PM MST
Civil Twilight 6:12 AM MST 5:18 PM MST
Nautical Twilight 5:41 AM MST 5:50 PM MST
Astronomical Twilight 5:10 AM MST 6:20 PM MST
Moon 9:32 PM MST (11/17) 11:25 AM MST (11/17)
Length of Visible Light 11h 06m
Length of Day
10h 11m
Waning Gibbous, 73% of the Moon is Illuminated
Nov 17
Waning Gibbous
Nov 19
Last Quarter
Nov 26
New
Dec 3
First Quarter
Dec 11
Full

Hourly Weather History & Observations

Time (MST) Temp. Windchill Dew Point Humidity Pressure Visibility Wind Dir Wind Speed Gust Speed Precip Events Conditions
12:15 AM 16.0 °F - 9.3 °F 75% 30.26 in 10.0 mi Calm Calm - N/A   Clear
12:35 AM 17.2 °F - 10.2 °F 74% 30.26 in 10.0 mi Calm Calm - N/A   Clear
12:55 AM 15.8 °F - 9.9 °F 77% 30.25 in 10.0 mi Calm Calm - N/A   Clear
1:15 AM 13.5 °F - 8.2 °F 80% 30.25 in 10.0 mi Calm Calm - N/A   Clear
1:55 AM 10.2 °F - 6.4 °F 85% 30.25 in 10.0 mi Calm Calm - N/A   Clear
2:15 AM 11.7 °F - 7.2 °F 82% 30.24 in 10.0 mi Calm Calm - N/A   Clear
2:35 AM 10.0 °F - 5.0 °F 80% 30.25 in 10.0 mi Calm Calm - N/A   Clear
2:55 AM 9.5 °F - 5.7 °F 85% 30.25 in 10.0 mi Calm Calm - N/A   Clear
3:35 AM 8.1 °F - 4.5 °F 85% 30.26 in 10.0 mi Calm Calm - N/A   Clear
3:55 AM 9.1 °F - 6.4 °F 89% 30.26 in 10.0 mi Calm Calm - N/A   Clear
4:15 AM 10.9 °F 2.9 °F 7.0 °F 84% 30.26 in 10.0 mi ESE 4.6 mph - N/A   Clear
4:35 AM 8.8 °F - 5.9 °F 88% 30.26 in 10.0 mi Calm Calm - N/A   Clear
4:55 AM 9.3 °F - 5.5 °F 85% 30.25 in 10.0 mi Calm Calm - N/A   Clear
5:15 AM 9.1 °F - 6.3 °F 88% 30.25 in 10.0 mi Calm Calm - N/A   Clear
5:55 AM 9.7 °F - 6.1 °F 85% 30.26 in 10.0 mi Calm Calm - N/A   Clear
6:15 AM 7.7 °F - 4.1 °F 85% 30.27 in 10.0 mi Calm Calm - N/A   Clear
6:35 AM 7.2 °F - 4.3 °F 88% 30.28 in 10.0 mi Calm Calm - N/A   Clear
6:55 AM 7.3 °F - 3.7 °F 85% 30.28 in 10.0 mi Calm Calm - N/A   Clear
7:35 AM 16.2 °F - 11.8 °F 83% 30.28 in 10.0 mi Calm Calm - N/A   Clear
7:55 AM 21.7 °F - 16.0 °F 78% 30.28 in 10.0 mi Calm Calm - N/A   Clear
8:15 AM 22.5 °F - 17.2 °F 80% 30.28 in 10.0 mi Calm Calm - N/A   Clear
8:35 AM 26.4 °F 20.9 °F 18.1 °F 71% 30.27 in 10.0 mi ENE 4.6 mph - N/A   Clear
8:55 AM 29.5 °F 24.5 °F 19.2 °F 66% 30.27 in 10.0 mi NNE 4.6 mph - N/A   Clear
9:15 AM 33.6 °F 27.5 °F 20.1 °F 58% 30.27 in 10.0 mi North 6.9 mph - N/A   Clear
9:35 AM 38.1 °F 32.9 °F 19.4 °F 47% 30.27 in 10.0 mi NNE 6.9 mph - N/A   Clear
9:55 AM 43.5 °F 36.4 °F 15.6 °F 33% 30.26 in 10.0 mi West 15.0 mph 20.7 mph N/A   Clear
10:15 AM 45.7 °F 38.3 °F 15.3 °F 30% 30.26 in 10.0 mi West 18.4 mph 25.3 mph N/A   Clear
10:35 AM 46.9 °F - 15.1 °F 28% 30.26 in 10.0 mi West 15.0 mph 24.2 mph N/A   Clear
10:55 AM 47.3 °F - 14.4 °F 27% 30.26 in 10.0 mi West 15.0 mph 21.9 mph N/A   Clear
11:15 AM 48.2 °F - 14.9 °F 26% 30.25 in 10.0 mi West 12.7 mph 18.4 mph N/A   Clear
11:35 AM 48.6 °F - 15.1 °F 26% 30.24 in 10.0 mi West 13.8 mph - N/A   Clear
11:55 AM 49.6 °F - 14.9 °F 25% 30.23 in 10.0 mi West 15.0 mph 20.7 mph N/A   Clear
12:30 PM 50.9 °F - 14.7 °F 24% 30.21 in 10.0 mi West 16.1 mph - N/A   Clear
12:55 PM 50.7 °F - 14.5 °F 24% 30.20 in 10.0 mi West 16.1 mph - N/A   Clear
1:15 PM 51.8 °F - 14.4 °F 23% 30.19 in 10.0 mi West 16.1 mph - N/A   Clear
1:35 PM 52.2 °F - 14.4 °F 22% 30.18 in 10.0 mi West 13.8 mph 18.4 mph N/A   Clear
1:55 PM 52.7 °F - 14.0 °F 22% 30.18 in 10.0 mi West 15.0 mph - N/A   Clear
2:15 PM 51.6 °F - 14.0 °F 22% 30.18 in 10.0 mi West 15.0 mph 21.9 mph N/A   Clear
2:35 PM 52.0 °F - 14.2 °F 22% 30.17 in 10.0 mi West 15.0 mph 21.9 mph N/A   Clear
2:55 PM 51.8 °F - 13.6 °F 22% 30.17 in 10.0 mi West 15.0 mph 19.6 mph N/A   Clear
3:15 PM 51.6 °F - 13.1 °F 22% 30.17 in 10.0 mi West 16.1 mph 20.7 mph N/A   Clear
3:35 PM 50.5 °F - 12.9 °F 22% 30.18 in 10.0 mi West 12.7 mph 19.6 mph N/A   Clear
3:55 PM 50.0 °F - 13.1 °F 23% 30.18 in 10.0 mi West 4.6 mph - N/A   Clear
4:35 PM 45.7 °F 42.7 °F 12.7 °F 26% 30.18 in 10.0 mi SE 5.8 mph - N/A   Clear
4:55 PM 45.5 °F - 13.3 °F 27% 30.19 in 10.0 mi Calm Calm - N/A   Clear
5:15 PM 44.4 °F 41.2 °F 13.5 °F 29% 30.19 in 10.0 mi South 5.8 mph - N/A   Clear
5:35 PM 43.9 °F 42.3 °F 13.6 °F 29% 30.20 in 10.0 mi NW 3.5 mph - N/A   Clear
5:55 PM 42.8 °F - 13.1 °F 30% 30.20 in 10.0 mi Calm Calm - N/A   Clear
6:15 PM 40.8 °F 36.9 °F 12.6 °F 32% 30.20 in 10.0 mi South 5.8 mph - N/A   Clear
6:35 PM 38.7 °F - 12.7 °F 35% 30.22 in 10.0 mi Calm Calm - N/A   Clear
6:55 PM 31.5 °F 28.1 °F 13.1 °F 47% 30.22 in 10.0 mi NNW 3.5 mph - N/A   Clear
7:15 PM 31.6 °F 28.3 °F 12.7 °F 46% 30.22 in 10.0 mi ENE 3.5 mph - N/A   Clear
7:35 PM 28.2 °F - 12.6 °F 52% 30.23 in 10.0 mi Calm Calm - N/A   Clear
7:55 PM 30.9 °F - 14.0 °F 50% 30.23 in 10.0 mi Calm Calm - N/A   Clear
8:15 PM 27.9 °F - 13.1 °F 54% 30.23 in 10.0 mi Calm Calm - N/A   Clear
8:35 PM 27.3 °F 23.4 °F 13.1 °F 55% 30.24 in 10.0 mi NNW 3.5 mph - N/A   Clear
8:55 PM 25.5 °F - 12.9 °F 59% 30.23 in 10.0 mi Calm Calm - N/A   Clear
9:15 PM 22.5 °F - 12.0 °F 64% 30.23 in 10.0 mi Calm Calm - N/A   Clear
9:35 PM 21.7 °F - 12.0 °F 66% 30.23 in 10.0 mi Calm Calm - N/A   Clear
9:55 PM 20.8 °F - 12.2 °F 69% 30.23 in 10.0 mi Calm Calm - N/A   Clear
10:15 PM 26.4 °F - 13.6 °F 59% 30.23 in 10.0 mi Calm Calm - N/A   Clear
10:35 PM 24.8 °F 17.9 °F 13.3 °F 62% 30.22 in 10.0 mi ENE 5.8 mph - N/A   Clear
10:55 PM 23.4 °F - 13.1 °F 65% 30.22 in 10.0 mi Calm Calm - N/A   Clear
11:15 PM 20.3 °F - 12.6 °F 72% 30.21 in 10.0 mi Calm Calm - N/A   Clear
11:35 PM 17.8 °F - 10.8 °F 74% 30.20 in 10.0 mi Calm Calm - N/A   Clear
11:55 PM 18.0 °F - 11.5 °F 76% 30.20 in 10.0 mi Calm Calm - N/A   Clear